This is the latest recevied weather packets stored in our database for station/object EFOU. If no packets are shown the sender has not sent any weather packets the latest 10 day(s).
| Time | Temp. | Humidity | Pressure | Rain* | Wind** | Luminosity | Snow |
|---|---|---|---|---|---|---|---|
| 1777681617 | 7.22° C | 61% | 1009 hPa | - | - | - | - |
| 1777680418 | 7.78° C | 60% | 1009 hPa | - | - | - | - |
| 1777679217 | 7.78° C | 60% | 1009.2 hPa | - | - | - | - |
| 1777678017 | 7.78° C | 58% | 1009.1 hPa | - | - | - | - |
| 1777676817 | 6.67° C | 64% | 1009.1 hPa | - | - | - | - |
| 1777675617 | 6.11° C | 70% | 1009.3 hPa | - | - | - | - |
| 1777674418 | 6.11° C | 69% | 1009.7 hPa | - | - | - | - |
| 1777673217 | 5.56° C | 73% | 1009.8 hPa | - | - | - | - |
| 1777672017 | 6.67° C | 67% | 1009.9 hPa | - | - | - | - |
| 1777670817 | 7.22° C | 67% | 1010 hPa | - | - | - | - |
| 1777669617 | 7.22° C | 66% | 1010.3 hPa | - | - | - | - |
| 1777668417 | 7.78° C | 67% | 1010.5 hPa | - | - | - | - |
| 1777667217 | 7.78° C | 67% | 1010.4 hPa | - | - | - | - |
| 1777666017 | 7.78° C | 65% | 1010.4 hPa | - | - | - | - |
| 1777664816 | 8.33° C | 63% | 1010.7 hPa | - | - | - | - |
| 1777663617 | 8.33° C | 62% | 1010.9 hPa | - | - | - | - |
| 1777662416 | 8.89° C | 62% | 1010.9 hPa | - | - | - | - |
| 1777661216 | 8.89° C | 61% | 1010.9 hPa | - | - | - | - |
| 1777660016 | 9.44° C | 60% | 1011 hPa | - | - | - | - |
| 1777658816 | 9.44° C | 59% | 1010.9 hPa | - | - | - | - |
| 1777657616 | 10° C | 58% | 1011 hPa | - | - | - | - |
| 1777656416 | 10.56° C | 54% | 1010.9 hPa | - | - | - | - |
| 1777655216 | 10.56° C | 53% | 1011.1 hPa | - | - | - | - |
| 1777654016 | 11.11° C | 54% | 1011.1 hPa | - | - | - | - |
| 1777652816 | 11.67° C | 51% | 1011.3 hPa | - | - | - | - |
* Rain since midnight (hover to see other rain measurements)
** Current wind speed in m/s (hover to see current wind gust speed)